Regional Weather Roundup
Issued by NWS

Home | Current Version | Previous Version | Text Only | Print | Product List | Glossary On
Versions: 1 2 3 4 5 6 7 8 9 10 11 12 13 14 15 16 17 18 19 20 21 22 23 24 25 26 27 28 29 30 31 32 33 34 35 36 37 38 39 40 41 42 43 44 45 46 47 48 49 50
000
ASUS45 KREV 100110
RWRNV
NEVADA REGIONAL WEATHER ROUNDUP
NATIONAL WEATHER SERVICE RENO NV
600 PM PDT WED JUL 09 2014

NOTE: "FAIR" INDICATES FEW OR NO CLOUDS BELOW 12,000 FEET WITH NO
SIGNIFICANT WEATHER AND/OR OBSTRUCTIONS TO VISIBILITY.

NVZ001-003-004-100200-
WESTERN NEVADA

CITY           SKY/WX    TMP DP  RH WIND       PRES   REMARKS
RENO           MOSUNNY   95  35  12 NW15      29.96F
CARSON CITY    FAIR      90  36  14 W13G23    30.01F
SLIDE MTN        N/A     68  41  37 W14         N/A
PYRAMID LAKE     N/A     91 N/A N/A E1          N/A
FALLON         MOSUNNY   95  37  13 NE7       29.91F
LOVELOCK       MOSUNNY   94  43  17 N8        29.91F
HAWTHORNE      SUNNY     93  34  12 CALM      29.93F
$$

NVZ002-CAZ072-073-100200-
NORTHERN AND CENTRAL SIERRA

CITY           SKY/WX    TMP DP  RH WIND       PRES   REMARKS
S. LAKE TAHOE  SUNNY     82  37  20 VRB7G20   30.16S
TRUCKEE        MOSUNNY   82  37  20 W15       30.14S
SQUAW VLY 8000 NOT AVBL
SUSANVILLE     SUNNY     93  36  13 S12G24    29.97F
BLUE CANYON    SUNNY     79  34  19 S8        30.14F
MAMMOTH LAKES  FAIR      84  30  14 W10G21    30.19F
BRIDGEPORT     FAIR      82  30  15 SW12G23   30.15F
$$

NVZ030-031-036-100200-
NORTHERN NEVADA

CITY           SKY/WX    TMP DP  RH WIND       PRES   REMARKS
ELKO           CLOUDY    69  59  70 E14       30.08R
WINNEMUCCA     PTSUNNY   90  47  22 N5        29.97F
WENDOVER       CLOUDY    90  46  22 W25       29.92R
$$

NVZ035-037-100200-
CENTRAL NEVADA

CITY           SKY/WX    TMP DP  RH WIND       PRES   REMARKS
ELY            CLOUDY    70  54  56 N9        30.17S
EUREKA           N/A     75  54  47 N5        30.11F
$$

NVZ013-014-100200-
SOUTH CENTRAL NEVADA

CITY           SKY/WX    TMP DP  RH WIND       PRES   REMARKS
TONOPAH        CLOUDY    85  42  22 W3        30.06F
$$

NVZ017-020-022-100200-
SOUTHERN NEVADA

CITY           SKY/WX    TMP DP  RH WIND       PRES   REMARKS
LAS VEGAS      PTSUNNY   95  58  28 NE5       29.79F
N. LAS VEGAS   MOSUNNY   92  57  30 CALM      29.83F
NELLIS AFB     MOSUNNY   95  59  30 N2        29.80F
HENDERSON      MOSUNNY   97  56  25 S3        29.85F
MERCURY        PTSUNNY   96  43  16 S14       29.89F
$$



USA.gov is the U.S. government's official web portal to all federal, state and local government web resources and services.